GFSSGP_250_spd_096.txt.gz
Wind_Speed
53 51 49 47 45 42 41 38 36 32 31 28 25 26 24 23 24 24 22 24 22 19 19 20 21 20 21 22 23 25 30 36 36 35 36 36 37 37 37 37 38 37 36 35 36 36 36 36 37
55 55 54 53 51 48 46 46 42 37 35 33 33 33 30 28 26 27 26 29 27 25 25 25 24 26 27 25 26 26 27 29 33 37 38 38 40 41 42 40 40 41 40 40 38 38 39 40 41
61 60 58 57 56 56 51 49 47 44 39 39 37 37 35 32 32 32 31 31 32 32 31 31 31 31 31 31 30 29 30 32 30 30 32 32 34 36 39 40 40 40 41 41 41 39 37 38 39
67 65 62 60 61 57 56 53 52 50 47 43 44 41 40 39 36 36 38 37 36 37 36 36 36 37 38 37 37 35 35 33 34 34 33 34 34 35 35 39 40 41 42 42 42 42 40 41 40
72 72 67 65 63 61 60 58 58 54 54 51 50 47 48 46 43 42 41 41 41 41 43 42 43 42 42 43 43 43 41 40 38 38 37 35 36 36 37 38 40 42 44 44 44 44 44 44 44
73 74 74 71 69 67 65 66 63 60 59 59 56 56 55 53 50 49 47 48 48 49 50 49 47 48 47 49 49 48 48 47 46 44 43 41 40 40 39 39 40 42 42 43 44 45 44 45 44
76 77 77 74 70 72 73 71 69 66 65 64 63 65 62 58 58 55 54 54 54 55 55 56 56 55 55 55 55 54 53 54 53 51 49 47 46 46 46 44 44 43 45 46 45 44 45 43 44
81 80 79 81 79 79 75 78 75 73 71 67 68 68 66 63 61 62 60 58 60 60 61 59 61 62 61 62 62 61 60 60 59 57 56 53 52 51 50 49 46 45 45 47 48 48 48 48 48
86 76 85 83 85 87 81 82 78 79 78 73 73 72 72 72 70 67 65 68 67 66 67 68 67 66 68 69 69 69 66 64 64 64 62 61 57 56 56 54 52 51 49 49 49 49 51 52 53
87 84 83 86 91 89 89 83 83 84 84 83 81 82 81 81 82 78 75 73 78 72 72 74 72 75 75 75 78 78 75 72 68 68 68 67 66 63 62 60 58 55 55 53 52 53 54 55 56
85 90 90 88 89 91 86 86 91 88 89 94 88 86 86 84 89 88 90 86 81 83 81 74 80 83 82 80 83 82 80 77 76 73 73 72 70 68 67 63 64 64 63 60 58 58 58 59 59
92 91 89 93 93 89 94 90 92 85 93 87 92 94 92 91 95 97 95 95 92 87 81 81 80 79 81 84 87 86 81 82 83 79 80 77 75 71 71 71 69 68 67 67 66 65 65 64 63
96 98 96 92 96 97 97 100 99 94 95 96 88 89 88 87 94 89 91 92 92 90 86 88 90 87 84 86 86 87 84 88 86 85 84 82 83 79 77 76 76 73 72 73 72 72 71 69 68
97 98 98 99 97 96 99 100 101 101 106 100 100 99 101 102 104 105 105 103 104 97 100 96 97 96 94 93 94 93 96 95 90 89 89 86 87 87 86 84 84 82 80 80 78 77 76 74 71
97 96 97 102 103 103 104 105 104 106 104 109 107 107 105 106 104 107 109 109 109 105 105 105 102 101 105 101 101 99 96 98 97 96 96 91 91 91 93 92 90 92 89 88 86 82 83 81 80
88 93 99 104 105 105 110 112 113 114 114 111 112 113 113 110 110 108 110 107 107 111 112 112 111 110 112 114 112 108 109 110 105 103 100 99 98 98 95 98 95 94 93 92 89 88 85 82 81
72 75 79 83 89 91 92 99 108 110 106 104 104 108 110 111 111 113 113 113 116 118 118 115 113 118 120 119 119 117 114 113 110 110 108 109 105 100 101 99 97 99 99 99 97 91 89 87 86
69 73 76 77 76 76 77 80 86 93 100 99 98 101 104 106 108 110 107 107 109 109 110 111 111 112 116 121 120 119 120 120 121 115 117 112 108 108 107 106 102 104 99 99 100 97 93 91 91
60 66 70 71 70 72 76 77 78 80 82 85 88 91 91 93 95 96 95 95 98 101 103 106 106 105 109 111 111 112 115 117 117 116 120 121 120 118 114 109 105 102 102 101 100 97 97 98 92
27 31 36 40 44 46 56 57 62 66 67 71 73 75 78 79 83 86 89 89 89 92 95 94 96 100 105 109 108 109 111 111 112 114 113 114 116 117 119 110 106 104 100 96 95 95 97 93 87
26 27 25 28 27 30 30 33 37 40 42 44 48 51 55 55 56 59 63 67 73 80 85 92 98 103 102 105 106 106 106 108 107 111 115 115 115 115 113 109 109 106 107 103 101 99 99 96 87
33 32 33 32 33 34 33 34 39 42 44 48 49 50 49 51 52 54 54 55 56 58 63 68 76 85 92 100 107 113 110 107 105 106 110 113 113 114 114 112 111 109 107 105 100 101 103 102 93
41 41 39 38 38 38 41 37 44 45 49 51 51 51 51 54 55 56 57 59 61 61 62 62 64 65 70 79 86 92 96 102 110 114 113 111 113 114 113 110 109 109 106 105 101 101 100 91 94
44 46 44 43 44 42 46 40 44 48 50 54 52 52 55 56 57 58 59 59 61 64 65 66 67 69 71 73 73 76 82 84 90 96 101 112 121 116 111 109 109 107 103 102 100 99 97 97 92
50 50 50 47 48 46 48 47 51 52 53 55 57 58 60 62 61 62 63 63 63 64 67 69 71 73 76 78 79 78 77 80 83 86 88 94 99 101 108 117 114 108 104 102 103 99 97 96 92
55 54 54 52 53 50 50 53 56 53 60 60 60 63 63 64 64 66 68 69 71 71 70 71 74 75 78 82 80 79 80 81 84 86 88 88 88 89 90 96 101 110 112 107 103 102 99 94 92
61 59 58 56 55 53 56 55 56 56 61 61 62 63 64 66 70 71 73 75 75 77 77 78 79 79 79 83 84 82 81 83 89 90 89 91 88 85 83 87 87 86 90 99 108 107 102 99 97
65 63 62 63 59 56 57 58 60 60 65 64 65 65 68 70 72 74 77 79 82 83 86 86 85 87 86 82 85 87 87 87 89 94 93 92 87 82 78 79 80 81 84 85 85 91 100 103 99
65 65 65 65 65 63 62 62 62 64 66 65 67 70 73 74 76 78 80 82 84 86 88 89 91 93 93 89 89 90 90 90 93 95 95 95 93 90 85 86 83 83 83 84 82 79 79 84 90
69 68 68 66 65 66 65 63 66 69 71 70 73 74 76 78 80 82 84 87 89 90 91 94 95 95 96 92 92 93 91 90 90 94 95 93 92 91 90 90 87 84 83 81 81 80 78 74 74

GFSSGP_250_spd_102.txt.gz
Wind_Speed
53 49 46 45 40 38 37 37 34 33 31 26 28 26 27 24 22 20 18 16 19 19 18 18 14 14 14 15 15 17 17 17 18 18 18 18 20 22 24 28 30 29 30 32 33 35 36 35 35
58 55 51 49 45 43 43 44 38 37 28 36 33 31 30 22 28 24 26 20 21 21 21 23 23 20 18 19 19 20 20 20 21 22 21 21 21 21 21 21 23 27 28 30 29 31 32 34 35
63 60 57 55 52 49 52 47 45 41 37 40 35 37 31 28 29 29 30 28 28 27 27 29 31 28 26 25 24 24 25 26 26 26 26 26 26 25 27 27 27 28 31 34 35 34 35 35 37
68 66 62 60 57 55 55 52 48 44 44 45 43 42 34 34 36 34 34 33 34 33 30 30 32 33 32 32 32 31 30 30 32 30 28 29 31 33 33 33 32 32 33 34 36 37 38 39 38
69 69 65 62 61 61 58 56 52 48 52 50 48 46 40 39 37 38 38 38 38 37 37 36 37 38 38 38 38 37 38 39 40 40 40 39 37 36 38 38 38 40 41 40 41 41 41 40 41
71 70 68 64 65 65 65 62 57 56 56 52 51 49 45 44 40 41 42 43 43 42 43 43 43 42 43 43 43 44 45 46 46 45 46 47 46 46 44 45 46 46 47 48 47 46 45 44 44
73 72 70 70 69 70 69 67 65 63 61 61 56 53 53 47 46 46 46 47 48 47 49 49 48 49 49 50 50 50 50 51 51 51 51 51 52 53 53 54 53 54 55 52 52 52 50 48 47
82 78 72 73 72 72 74 74 68 67 65 66 59 59 58 52 47 53 54 54 54 53 52 54 56 56 57 56 58 56 57 56 56 56 57 57 56 55 57 60 59 59 60 60 57 58 58 53 51
81 81 80 78 77 78 79 77 72 76 75 70 64 69 65 60 60 61 62 60 59 57 57 57 59 62 63 63 63 62 62 64 63 62 62 62 63 62 61 62 67 66 68 67 65 62 62 58 57
82 76 81 83 84 85 81 79 76 73 81 73 74 75 75 70 70 70 69 69 67 65 64 64 66 67 67 68 69 70 69 71 73 74 73 69 70 68 70 69 69 66 69 69 70 69 65 61 59
83 83 80 80 85 81 84 85 85 77 79 77 78 80 79 76 71 73 76 77 74 71 71 69 73 72 77 78 79 79 78 79 79 82 82 79 77 79 81 81 79 76 71 71 71 72 71 69 65
85 85 84 90 83 73 81 84 83 84 79 79 82 84 84 82 80 80 79 80 79 80 75 77 75 79 83 81 86 93 89 90 89 90 87 86 86 82 86 88 87 88 86 83 78 76 78 73 71
92 90 91 88 87 90 91 83 84 86 84 81 75 75 79 85 89 87 88 89 85 88 85 83 82 83 92 95 92 77 91 88 88 92 91 93 91 88 91 89 89 92 89 91 86 81 78 77 74
101 99 95 93 96 88 97 94 90 88 86 85 90 90 89 89 92 90 93 87 90 93 97 89 85 84 63 67 95 106 97 83 90 92 95 95 93 92 90 89 91 94 95 97 93 91 87 83 81
105 103 102 100 100 97 96 92 93 101 99 95 92 99 99 97 98 93 92 90 87 86 88 91 83 83 89 90 80 76 91 99 93 96 90 89 93 98 98 103 102 99 99 98 100 94 91 91 92
105 108 107 108 109 109 104 99 99 99 101 96 101 98 94 99 101 104 109 109 102 96 100 95 92 89 91 97 104 105 105 106 112 105 103 109 108 105 104 104 106 107 105 104 103 103 98 97 96
98 102 102 108 112 112 107 107 111 109 101 100 100 101 105 103 100 100 102 103 106 105 102 109 106 106 104 114 114 114 112 114 118 118 120 122 120 119 112 109 107 107 106 105 104 105 106 105 104
83 94 100 102 106 106 107 106 109 110 106 104 107 106 104 105 105 105 105 107 106 107 108 106 107 109 112 111 113 111 110 111 114 117 121 118 116 116 117 109 108 109 103 99 97 94 95 101 100
74 76 79 88 95 98 99 101 100 102 105 101 104 104 104 105 106 108 109 107 111 111 111 111 110 110 112 117 119 119 115 114 111 112 117 114 111 111 112 116 113 107 107 104 101 99 96 96 101
68 69 72 75 79 84 89 93 100 100 98 97 96 95 100 104 106 111 116 118 110 104 111 110 104 101 101 103 103 100 97 99 99 98 100 102 107 108 110 111 106 104 100 99 98 98 96 96 99
65 66 68 70 72 72 75 80 83 85 86 89 92 94 96 98 101 104 107 102 104 103 100 97 94 93 94 95 96 97 98 98 92 93 92 92 99 101 104 106 105 104 103 99 97 96 94 93 97
41 48 52 58 62 63 68 70 74 77 81 83 85 87 88 89 89 88 88 91 89 87 86 83 82 77 79 81 81 80 77 74 71 71 70 71 72 75 78 81 84 88 89 91 93 95 98 97 96
32 38 38 39 40 40 41 44 44 52 53 57 62 63 66 69 63 63 63 68 62 58 61 58 58 58 61 59 60 61 63 64 65 68 69 71 67 52 73 78 80 82 77 76 79 80 83 86 88
41 39 39 42 43 40 44 46 45 49 50 50 49 48 50 49 46 52 54 50 52 54 53 53 52 56 59 60 61 62 64 67 68 70 72 74 74 61 49 54 57 82 79 76 77 76 78 79 76
48 47 42 44 48 47 53 53 52 56 56 53 52 52 52 49 50 54 52 52 55 53 56 56 58 59 63 66 67 68 69 71 74 75 77 78 78 71 52 66 58 68 71 90 96 89 70 74 70
57 57 57 57 56 54 55 55 56 62 62 60 62 57 55 56 59 56 59 59 58 61 62 63 65 65 66 70 73 74 75 79 80 80 83 85 86 84 75 53 42 59 94 98 80 69 72 72 70
66 66 70 66 64 63 64 63 64 66 68 65 65 66 64 66 63 61 64 64 66 67 67 68 71 71 73 74 77 78 81 83 84 86 88 89 92 92 85 64 44 51 65 71 72 74 74 64 65
66 69 68 68 67 68 67 70 70 73 73 72 70 71 70 70 71 69 68 71 71 70 72 73 74 77 80 83 84 84 88 88 90 92 94 97 98 98 94 77 52 60 69 72 82 70 66 58 52
74 72 72 74 71 69 68 67 73 73 77 79 79 78 75 75 75 75 75 81 77 78 80 81 81 84 87 89 91 92 95 96 99 98 100 103 105 104 98 82 66 58 71 66 47 49 63 65 51
79 79 77 78 75 76 73 67 76 77 80 80 83 85 82 80 79 79 76 82 81 83 83 86 87 90 92 94 95 99 103 103 105 107 108 108 107 104 100 91 66 61 65 64 54 66 72 74 63

GFSSGP_250_spd_105.txt.gz
Wind_Speed
51 48 47 43 40 43 42 40 34 32 28 29 33 28 23 19 20 14 20 15 17 15 13 12 12 9 9 9 10 12 13 14 15 15 17 17 18 19 19 19 19 21 23 24 26 26 28 29 29
55 51 49 45 43 45 45 39 37 34 35 38 34 30 21 22 23 24 24 21 20 19 19 19 18 20 17 15 15 16 16 17 18 18 19 20 21 22 22 22 24 26 26 28 28 29 30 33 34
59 54 52 49 46 49 46 44 41 39 37 39 37 32 27 29 30 25 25 25 25 26 22 21 22 23 24 24 21 22 22 22 23 23 23 23 23 24 24 26 26 27 29 32 35 37 38 39 41
64 59 56 53 52 53 49 48 45 41 43 44 41 37 33 30 35 30 30 31 30 33 31 28 27 25 25 27 28 28 28 28 28 29 31 31 31 32 32 31 33 34 34 36 37 39 41 43 45
67 63 61 57 56 57 55 53 50 47 46 44 46 41 40 36 37 35 32 34 35 35 36 34 33 31 30 30 32 33 34 36 36 36 37 39 39 38 39 41 41 41 42 44 45 44 45 46 48
69 68 64 61 61 62 62 61 57 55 53 50 52 44 42 41 38 40 38 37 39 36 36 36 37 37 37 37 37 37 38 39 42 44 43 43 44 44 44 44 45 45 46 46 48 50 52 51 54
74 72 69 67 67 66 65 67 63 59 58 55 55 49 46 44 45 44 45 40 43 42 38 39 41 43 42 43 44 44 45 44 45 48 50 51 50 51 50 51 51 49 50 51 52 55 56 54 56
79 75 73 71 70 69 69 71 69 64 62 59 57 55 50 50 48 52 52 45 45 47 46 45 46 49 49 49 50 52 51 51 53 53 54 56 57 56 57 58 58 59 58 58 58 59 59 56 60
84 78 73 75 73 72 75 75 72 69 66 65 62 59 58 58 56 58 57 55 50 52 51 51 54 54 55 56 56 58 58 57 59 60 62 63 63 65 66 66 66 68 67 65 66 67 66 66 66
83 81 80 81 79 78 80 77 74 71 68 69 69 66 65 63 63 62 63 61 58 58 61 60 61 61 59 62 64 65 66 66 66 66 70 73 74 76 79 78 78 77 77 72 71 71 71 74 72
86 81 84 84 84 82 81 79 77 76 74 73 78 73 72 71 69 68 69 70 70 66 64 68 68 66 67 68 70 69 71 73 74 74 76 78 81 81 86 82 77 80 79 76 76 77 78 76 78
87 85 85 84 83 84 83 83 84 82 83 81 79 80 81 79 78 74 72 76 77 76 71 67 72 75 71 71 75 75 73 71 78 82 86 86 86 88 77 75 81 78 80 82 82 84 84 82 80
91 90 86 86 87 84 82 81 85 81 84 83 81 82 82 83 84 81 80 82 83 79 77 77 76 79 85 75 83 80 83 88 84 87 91 94 91 90 89 90 84 79 87 88 88 82 84 88 89
96 94 90 86 84 85 83 83 88 84 83 84 81 76 78 81 86 85 83 81 85 76 75 76 78 80 85 85 89 86 84 84 90 89 73 83 77 84 77 80 82 88 85 87 91 85 82 88 95
101 99 97 94 89 91 93 87 87 93 92 87 78 76 76 82 86 83 85 84 82 82 86 89 83 80 76 68 83 86 84 84 78 78 80 87 90 92 78 92 94 96 95 97 91 95 100 103 106
102 103 103 104 106 102 97 91 98 96 97 98 99 99 99 96 92 94 96 91 89 91 95 95 90 85 91 98 100 99 90 86 83 84 82 86 87 92 91 99 102 101 101 104 111 107 104 110 107
98 101 105 110 110 110 107 101 102 103 102 100 97 93 97 98 101 100 100 100 101 98 92 90 90 95 98 100 103 106 102 98 98 98 96 97 102 106 106 111 113 113 103 101 103 105 107 101 104
92 95 101 105 109 111 107 105 107 109 109 107 107 106 107 106 106 108 103 104 106 104 106 104 104 102 96 97 101 101 100 103 102 104 103 103 106 108 107 103 99 101 101 99 92 95 100 98 93
94 95 94 95 100 105 105 104 104 105 109 107 107 109 110 113 114 111 109 111 109 106 107 105 109 110 106 105 100 99 97 99 104 103 106 110 105 104 92 90 82 79 82 85 86 88 86 92 98
79 86 90 92 95 98 99 97 98 103 105 108 108 106 107 106 110 110 108 106 102 98 100 101 103 102 100 104 106 105 105 108 114 114 108 103 95 89 90 94 89 75 76 78 72 59 70 74 74
64 67 70 75 82 83 85 90 92 97 101 104 106 106 104 104 103 104 104 102 97 94 93 96 97 89 94 97 103 105 101 100 99 97 94 89 86 81 73 70 56 61 56 57 56 70 83 64 59
61 63 65 66 68 68 72 70 74 80 83 86 88 92 99 101 100 99 99 94 90 88 88 91 88 86 88 91 91 91 92 90 84 80 76 70 65 60 54 56 51 51 52 46 63 72 65 65 65
34 40 45 48 53 54 62 64 63 72 75 79 81 82 83 86 84 86 87 88 87 86 84 74 74 77 75 74 75 78 76 71 67 63 59 57 54 51 45 40 27 66 62 65 58 54 74 81 66
39 36 32 34 33 30 37 43 43 52 57 62 66 62 59 62 64 71 72 71 65 65 65 65 60 58 61 65 64 62 61 61 61 60 57 59 58 54 47 39 37 63 69 55 49 65 70 74 72
50 53 50 48 47 42 44 39 42 48 51 48 56 55 56 52 49 51 53 56 53 52 53 52 53 56 57 58 62 62 61 62 64 65 63 63 64 63 60 53 60 65 59 60 63 53 53 54 70
57 55 54 53 52 51 49 47 49 55 57 58 62 55 56 53 51 52 56 59 56 53 53 54 57 58 61 62 63 66 67 69 71 72 71 70 70 70 71 71 70 69 68 63 44 37 41 31 52
61 61 61 59 58 57 56 57 60 65 57 61 66 62 60 60 57 58 61 64 58 57 61 63 62 63 65 67 68 70 72 75 76 79 80 79 79 79 80 82 83 81 74 59 63 60 61 50 65
68 71 71 69 67 66 62 63 67 71 69 67 73 73 67 68 67 67 68 68 66 67 68 69 68 68 70 74 77 76 77 81 84 85 87 88 87 87 88 89 91 92 88 71 68 72 70 87 70
73 70 73 72 67 66 65 67 70 73 73 69 71 72 75 75 76 74 73 74 75 75 76 81 75 76 76 79 82 82 84 87 90 92 94 95 95 95 96 97 97 97 97 85 69 68 68 77 77
80 81 82 81 77 74 71 67 77 80 74 76 76 76 77 78 78 78 77 80 80 81 83 88 85 84 83 83 86 88 89 92 97 99 102 104 104 103 104 104 104 105 103 91 73 68 67 61 48

GFSSGP_250_spd_111.txt.gz
Wind_Speed
56 57 55 55 50 44 43 38 35 38 34 33 30 30 31 29 22 22 23 19 18 19 18 16 14 14 12 10 7 6 8 12 14 14 14 14 15 15 15 17 18 17 19 21 23 26 28 31 34
59 60 57 57 55 49 43 37 37 38 36 34 28 29 34 31 23 26 28 21 20 19 20 19 19 17 14 12 11 10 11 13 14 15 17 17 17 17 18 20 21 23 26 28 31 32 35 36 38
64 62 60 58 58 52 44 38 41 42 39 35 33 34 34 30 28 30 26 23 23 25 24 24 23 22 21 21 20 19 18 17 17 18 18 19 19 19 22 26 26 28 31 33 35 36 39 41 44
68 63 63 61 61 57 45 43 44 41 42 36 35 37 31 32 33 31 28 29 30 28 28 27 29 28 26 25 23 22 23 21 21 22 22 23 24 26 28 29 32 34 34 35 38 42 45 48 51
70 65 65 67 63 60 50 48 46 43 41 36 38 38 34 36 37 34 35 34 33 32 32 31 32 32 30 29 27 26 26 27 28 28 28 29 30 32 34 36 36 37 39 40 43 46 48 50 53
73 69 67 69 66 65 56 51 51 47 44 40 40 38 38 39 39 38 38 37 37 36 35 35 35 35 33 34 35 34 32 31 31 32 34 35 36 38 38 40 43 44 44 47 49 50 53 57 60
77 72 70 70 70 67 61 55 53 53 47 45 45 43 42 44 44 43 38 39 41 42 40 39 39 37 37 37 36 37 36 35 36 37 37 39 43 45 47 47 48 50 50 51 51 52 56 60 65
80 77 73 72 71 71 67 59 56 57 54 49 46 45 45 45 45 47 46 46 45 44 43 42 42 42 40 40 39 39 41 42 44 43 44 46 48 50 49 50 51 55 56 57 58 60 62 63 60
82 78 76 77 76 72 68 64 63 59 58 53 50 48 47 49 48 52 52 51 47 47 48 46 45 45 45 44 46 47 48 48 49 51 53 55 54 54 54 54 57 63 62 61 61 62 65 61 62
83 79 78 80 78 75 72 68 67 66 62 59 56 54 53 53 55 56 57 54 53 53 52 52 51 50 50 51 52 53 54 56 57 59 60 59 62 63 63 62 62 67 69 69 63 64 64 62 65
86 80 81 83 80 78 76 74 73 70 67 64 61 59 60 59 60 60 59 59 59 57 57 55 55 54 55 57 58 58 60 62 62 63 63 65 66 66 66 62 67 70 72 70 59 64 69 69 72
90 85 84 84 83 79 78 77 74 73 72 70 67 66 66 67 65 64 61 60 62 62 62 61 61 60 59 61 64 65 67 69 68 69 68 70 68 65 64 67 72 72 76 66 60 70 69 70 75
93 89 89 88 84 82 83 78 77 75 76 74 73 72 72 70 69 67 66 65 64 63 66 67 66 67 67 68 71 73 74 74 72 72 71 72 73 71 71 70 73 72 76 60 69 74 80 89 76
94 94 90 89 85 83 83 83 81 80 81 81 79 78 76 75 75 73 72 72 70 70 70 70 73 76 76 77 76 76 77 77 75 72 73 73 74 77 75 76 81 77 71 77 80 87 88 80 77
94 93 90 88 86 88 88 83 82 87 86 86 85 83 82 81 81 80 81 81 79 77 76 76 76 77 76 77 78 76 76 74 71 75 76 78 72 73 76 78 79 82 82 87 87 82 84 87 83
97 95 94 94 93 92 90 87 90 90 90 86 84 83 83 83 84 85 84 84 82 81 79 80 79 82 84 82 81 77 74 76 75 81 81 83 82 80 84 84 85 86 82 82 88 87 84 83 77
100 98 97 98 101 99 93 88 89 89 87 85 85 86 85 85 85 86 86 85 84 84 84 81 82 82 78 78 79 80 85 90 93 94 93 91 89 88 94 92 97 91 84 89 89 85 85 78 71
100 101 99 100 101 98 93 88 90 91 89 90 90 90 89 89 89 87 87 88 89 88 88 90 91 91 98 95 95 97 101 100 100 102 103 100 98 95 96 93 86 84 84 83 82 81 75 67 69
102 99 99 101 102 99 97 94 92 95 93 93 93 93 95 99 99 97 95 93 93 92 91 95 98 98 98 97 99 103 103 104 104 103 106 98 91 98 95 88 89 89 83 81 76 72 70 61 47
103 102 101 105 104 99 99 98 97 97 99 98 97 98 103 107 106 105 103 103 102 100 100 103 103 105 107 109 110 109 109 111 109 104 96 98 97 93 89 86 85 81 80 75 73 71 59 42 37
98 101 102 103 107 103 103 101 101 104 106 105 105 109 111 109 109 108 107 106 105 105 108 111 112 114 115 113 113 112 108 107 108 102 99 95 88 85 85 84 85 83 78 77 69 58 49 42 43
98 100 101 102 103 104 106 103 104 104 105 104 105 109 110 107 107 107 106 105 105 107 107 109 109 111 113 108 107 110 104 98 99 98 91 89 85 85 84 82 79 78 70 67 63 55 49 48 51
89 93 97 101 103 106 106 106 102 106 104 103 107 108 106 104 100 99 102 102 102 102 100 99 99 98 99 94 88 91 90 86 85 85 86 86 85 82 76 74 72 66 61 58 54 53 60 56 54
78 81 83 87 91 93 95 98 93 94 99 102 101 100 100 98 95 93 95 94 92 93 91 91 91 87 87 88 85 85 82 77 73 72 71 69 69 69 69 65 60 57 54 51 51 50 52 61 57
71 73 75 75 76 75 81 80 76 80 83 86 88 87 88 87 86 83 81 82 81 81 82 81 79 75 72 69 72 72 71 70 69 66 63 60 61 63 61 61 60 58 56 54 54 54 54 56 59
71 73 72 72 74 75 76 73 75 76 82 80 83 82 81 80 80 79 78 75 73 69 69 64 62 65 66 64 62 62 62 63 65 66 66 65 63 63 65 64 63 63 63 62 61 59 58 60 62
64 67 69 68 70 72 73 73 73 74 75 76 73 73 71 72 74 70 68 66 62 58 58 61 61 59 59 59 60 62 63 65 67 68 69 69 69 69 70 70 70 69 69 69 68 68 67 65 67
59 61 60 60 58 58 59 62 63 65 65 65 62 62 63 61 62 59 59 57 57 58 59 61 62 64 66 67 67 68 69 71 72 74 74 74 74 75 76 77 77 76 77 77 76 76 76 75 75
63 63 65 66 64 63 62 63 68 69 67 67 67 67 67 69 72 69 67 67 67 67 67 67 66 69 72 71 73 75 77 76 76 75 77 78 80 80 82 83 84 85 85 85 85 85 85 84 84
68 70 72 72 73 71 70 67 72 76 77 77 75 73 74 75 75 74 74 74 73 71 70 73 75 76 76 77 77 79 80 81 80 81 86 89 89 89 89 90 90 91 90 90 92 92 94 94 95

GFSSGP_250_spd_114.txt.gz
Wind_Speed
59 56 54 53 51 47 43 43 43 42 40 38 36 36 33 30 29 23 23 20 21 20 18 15 14 15 15 11 9 9 8 8 10 13 14 13 13 13 14 13 13 14 16 19 20 22 23 26 32
62 59 57 55 50 51 40 43 42 43 42 40 38 36 35 30 28 25 25 26 24 20 19 17 17 17 16 14 13 12 11 11 11 13 14 14 16 16 17 16 17 21 21 24 25 26 28 32 35
66 64 60 58 56 52 50 40 40 43 43 41 38 35 35 34 34 28 30 31 24 23 23 21 19 19 19 18 17 16 16 15 15 16 17 16 17 18 18 21 24 26 28 28 34 35 35 38 39
69 67 63 59 60 57 50 44 40 43 41 38 37 36 35 38 34 29 34 32 28 27 25 24 24 25 23 24 23 22 22 20 20 19 19 20 22 24 24 26 28 29 33 37 37 38 41 43 44
72 69 66 63 63 61 53 48 45 42 41 39 37 35 36 40 36 33 37 32 32 31 29 28 29 29 28 29 29 28 27 26 27 25 26 27 27 28 29 30 33 36 37 36 38 42 45 46 48
75 72 70 68 68 66 54 51 49 46 44 40 39 38 41 42 38 38 37 31 33 34 32 32 32 33 33 33 33 33 32 32 32 32 31 33 33 34 35 37 39 41 41 41 40 47 49 51 52
78 75 73 73 72 66 60 55 53 52 47 44 42 40 44 45 39 39 38 37 37 38 36 36 36 36 36 36 35 35 35 36 35 37 38 39 39 40 42 44 46 46 48 49 49 51 52 55 56
80 78 76 76 74 71 64 58 57 56 51 47 45 44 43 44 44 42 41 42 43 42 41 40 39 39 39 39 38 39 39 38 40 41 43 44 45 47 49 51 51 51 54 54 54 53 54 57 58
85 80 80 78 77 76 71 65 61 56 56 53 50 46 44 44 48 48 47 49 48 45 43 42 41 41 42 42 43 43 43 43 44 47 47 49 50 53 54 55 55 59 57 57 53 54 57 60 62
85 80 81 84 83 80 74 70 65 61 57 54 54 52 49 47 49 53 53 50 47 48 46 45 44 45 47 47 48 47 48 49 51 52 53 55 57 60 62 61 60 63 63 62 57 59 62 63 64
91 85 84 86 87 82 75 69 66 67 63 63 60 55 54 52 54 54 54 53 50 51 50 50 51 52 51 52 52 54 54 55 56 57 58 60 63 66 65 65 66 66 65 65 63 67 66 68 72
95 94 89 85 85 82 80 76 73 70 68 66 62 60 57 57 57 57 58 57 57 56 55 55 55 56 56 57 58 60 60 62 62 62 65 67 69 69 67 68 67 68 67 66 70 66 67 72 72
100 96 93 86 89 84 84 79 75 74 74 69 67 64 62 62 60 60 60 61 62 61 61 63 62 62 63 64 64 65 67 68 69 71 73 71 70 70 73 73 70 68 69 70 67 67 70 70 73
104 100 96 89 88 87 84 83 79 77 79 75 72 70 67 64 62 62 63 64 63 64 66 65 65 66 67 69 70 71 74 76 78 79 75 75 77 79 78 74 71 69 71 72 74 76 74 81 82
105 99 94 94 89 90 89 86 81 83 84 83 78 75 72 71 70 66 65 64 66 68 68 67 69 72 75 76 78 80 82 82 83 81 81 82 85 81 79 73 72 73 80 85 81 82 83 76 80
103 100 93 97 94 92 90 86 88 88 86 85 81 79 77 76 75 74 72 74 76 75 76 77 79 80 82 82 83 84 85 85 87 88 89 82 77 77 76 79 84 92 90 89 87 83 85 81 81
101 100 96 98 97 96 93 92 92 90 86 82 81 81 83 83 83 83 83 83 84 82 83 82 82 83 85 87 86 86 89 89 87 82 88 87 85 84 87 90 97 99 92 88 88 90 86 78 77
104 104 103 104 102 100 93 90 91 89 85 84 85 86 88 85 87 86 86 83 84 85 85 86 85 86 88 90 90 90 91 91 93 97 95 97 96 95 98 102 105 102 103 104 95 83 84 81 76
107 104 104 104 102 97 92 89 89 92 88 87 86 92 90 89 91 92 89 87 86 85 87 86 86 87 88 90 93 95 98 99 101 103 103 104 105 107 106 108 107 106 106 96 96 89 85 81 79
103 101 99 100 104 98 96 93 90 89 90 91 92 92 92 90 95 93 89 89 90 92 94 96 97 98 99 100 101 103 106 107 108 108 109 110 110 109 111 106 105 101 98 90 90 86 82 81 81
103 102 104 106 105 96 96 94 94 93 95 95 94 95 95 97 96 94 93 94 96 98 101 103 104 105 107 107 109 110 111 111 111 111 110 106 106 99 101 99 95 95 89 87 86 83 81 81 78
106 105 105 107 107 103 102 98 98 98 100 99 97 97 97 99 99 98 97 100 102 104 105 108 110 111 111 110 111 112 114 112 112 110 105 102 103 100 96 92 89 85 85 85 83 81 78 74 73
106 108 108 109 109 106 103 101 100 99 100 100 100 101 103 104 101 101 102 105 107 109 110 112 112 114 116 115 113 111 108 107 103 99 97 92 90 87 85 83 81 79 77 75 73 69 66 62 57
104 107 108 110 110 109 108 107 102 103 105 106 107 108 109 109 109 110 112 113 112 112 112 113 111 109 108 110 107 104 97 93 91 86 83 81 78 76 73 71 68 64 61 59 58 58 56 51 47
92 98 103 107 108 105 108 109 103 106 106 107 111 112 112 113 113 113 113 113 113 112 107 106 107 106 105 100 93 91 89 88 81 72 66 64 65 65 62 59 58 58 58 55 54 54 55 54 52
81 85 89 90 94 99 103 102 101 105 106 109 111 111 110 110 110 108 108 106 105 102 99 97 93 91 89 89 90 83 72 66 63 60 64 69 68 65 62 60 59 59 60 60 61 61 59 58 56
73 75 77 77 78 80 82 83 87 91 94 95 95 95 94 95 95 97 98 98 95 89 86 86 86 85 85 77 71 67 62 61 66 67 68 70 69 68 67 65 64 64 65 65 64 65 67 66 65
71 72 73 74 75 75 74 76 79 84 85 87 88 88 88 90 91 90 88 87 87 86 85 84 81 70 64 65 68 68 70 72 73 74 75 73 70 70 71 70 70 71 73 72 71 70 70 71 72
61 66 69 72 72 73 75 75 80 81 85 86 86 87 86 85 85 84 84 82 79 76 73 71 66 66 67 69 71 74 77 79 79 78 76 77 78 80 83 84 80 78 79 81 79 80 81 79 78
56 56 57 58 60 62 64 62 69 73 76 78 77 74 73 75 76 71 72 73 71 71 72 71 73 75 75 77 79 80 82 82 79 80 82 85 88 91 93 91 90 89 85 85 87 87 86 87 88

GFSSGP_250_spd_117.txt.gz
Wind_Speed
59 56 54 51 47 48 49 47 47 44 42 37 38 35 33 32 30 28 28 27 26 22 20 18 19 21 19 15 15 14 15 14 13 13 15 15 15 13 12 12 13 15 16 18 19 22 25 28 30
64 60 58 55 49 47 48 49 50 49 46 42 41 38 36 36 36 32 28 29 25 24 22 18 20 21 19 17 17 15 14 14 13 12 13 14 15 15 15 16 17 18 21 23 25 26 29 31 34
68 65 62 58 53 50 50 48 50 50 49 47 43 41 42 38 35 35 32 30 28 25 23 21 21 21 20 19 19 18 17 17 15 15 16 17 18 18 18 20 21 23 25 27 29 31 34 34 37
75 69 65 61 59 56 53 47 47 49 49 46 44 42 43 40 38 35 36 33 32 28 26 25 24 23 22 22 22 22 21 20 21 20 19 20 21 22 24 25 26 28 30 33 36 36 38 38 43
79 74 68 66 64 61 57 49 44 48 50 47 45 45 43 41 40 38 33 32 35 31 30 29 28 27 26 27 28 27 27 27 27 27 25 25 26 28 28 29 31 33 36 39 41 41 44 47 48
81 77 71 69 69 66 61 54 48 46 47 47 48 47 45 42 42 40 35 34 37 34 32 31 30 30 30 32 33 32 31 32 32 31 32 32 34 34 35 37 36 39 42 44 46 46 48 50 51
83 81 75 74 72 70 62 58 53 51 50 49 49 48 46 43 43 41 37 37 37 36 36 34 33 35 34 35 36 35 35 34 34 34 35 36 36 37 40 41 42 44 46 48 51 50 53 52 54
87 81 79 77 75 72 68 63 57 54 51 50 51 50 48 45 43 43 43 40 41 40 37 36 37 38 37 38 38 38 38 37 37 38 39 40 40 43 45 46 47 50 51 53 54 54 55 57 55
91 83 82 80 79 77 72 66 61 58 55 54 52 52 49 47 44 45 45 45 46 42 39 40 41 40 40 41 41 40 40 41 41 42 41 42 45 47 50 51 52 55 59 60 58 59 60 59 57
97 85 84 86 84 81 75 69 64 62 58 56 55 51 50 49 45 46 44 46 46 42 42 42 43 44 44 44 43 43 44 45 46 47 47 49 50 53 55 56 60 62 64 63 65 67 67 61 59
100 90 91 89 89 83 78 73 70 68 61 59 55 54 54 53 51 49 52 48 44 45 44 45 47 49 48 48 48 49 50 50 51 52 53 55 56 58 59 63 64 67 67 68 71 72 70 63 61
104 99 93 94 92 86 80 74 73 71 66 64 60 59 60 58 56 53 52 51 50 47 46 49 51 52 53 53 53 53 55 56 57 58 59 60 62 65 67 69 71 70 72 72 75 74 66 63 60
107 101 95 90 90 87 82 77 76 74 70 67 65 64 61 62 59 54 54 55 55 52 51 53 55 56 57 58 57 58 60 62 62 65 65 67 69 72 75 75 74 77 77 78 73 69 70 67 66
110 103 96 95 91 91 85 83 78 79 76 74 69 68 65 62 60 58 57 59 58 57 57 56 57 58 59 61 63 64 65 67 67 69 71 74 76 78 79 79 80 82 81 77 77 79 76 75 77
108 104 103 96 82 92 89 86 80 84 82 80 78 71 67 64 62 61 61 60 60 60 60 61 61 63 64 67 70 71 71 71 74 76 79 81 83 83 83 83 85 86 80 82 83 81 81 87 86
107 104 100 100 97 92 92 87 86 87 88 86 83 78 70 67 65 61 61 61 62 64 65 66 67 68 71 73 74 74 75 78 81 83 83 85 85 87 86 86 83 89 86 93 88 92 92 94 97
107 103 97 82 97 91 97 93 92 88 89 89 83 80 78 74 70 66 64 64 65 68 70 71 69 72 74 77 79 81 83 85 86 87 89 88 88 87 89 88 89 93 95 100 102 101 101 100 100
98 103 106 90 92 98 99 96 97 94 89 86 86 82 80 81 81 79 77 74 74 74 73 72 74 77 80 84 86 89 89 88 88 89 89 90 92 93 96 98 99 101 103 105 107 101 98 93 90
106 108 109 108 106 86 96 101 97 95 92 88 87 86 88 87 86 83 81 83 84 82 83 84 86 86 85 87 90 89 89 88 89 90 91 94 98 101 105 104 105 106 105 104 104 97 90 86 84
109 104 108 112 108 102 95 99 97 96 94 92 90 91 92 91 89 86 85 85 86 87 87 87 90 90 89 89 90 91 92 94 96 99 102 102 105 107 107 108 108 107 102 100 94 90 84 82 80
113 110 106 110 112 106 102 100 94 97 100 96 93 91 91 91 90 90 91 90 89 90 90 90 92 92 93 94 97 98 99 101 101 104 107 109 109 110 109 106 103 100 92 87 85 81 78 78 80
106 105 107 111 108 106 104 102 97 96 95 98 98 95 94 95 95 96 93 92 91 91 93 94 96 97 99 100 101 103 104 105 107 110 110 110 111 108 105 101 94 86 82 80 77 73 73 71 68
109 107 107 107 109 106 101 102 100 100 101 101 101 100 98 96 94 96 95 95 91 95 97 98 99 102 105 107 108 109 110 110 110 112 113 112 105 101 93 84 82 80 79 72 68 69 64 59 52
112 110 109 109 109 107 106 102 102 104 103 103 104 102 99 99 99 96 95 97 94 100 105 103 102 105 109 111 112 113 113 113 113 115 111 106 96 84 84 84 79 75 67 62 58 54 53 52 50
107 109 109 110 110 107 108 109 103 105 100 100 102 102 101 99 99 101 103 102 104 105 105 105 108 112 113 115 117 116 115 115 113 107 100 91 86 86 86 73 68 61 57 56 57 58 58 56 55
93 103 106 107 108 109 109 106 105 108 110 110 109 110 109 107 106 108 106 105 106 110 112 113 115 115 116 118 116 116 112 109 103 95 91 89 88 77 67 60 60 59 59 60 61 62 61 60 60
80 89 98 102 109 111 108 104 105 106 108 110 112 113 113 111 110 109 110 112 111 112 115 115 116 117 116 113 107 106 103 98 94 89 87 80 70 67 63 63 63 65 66 64 64 65 66 64 62
73 80 87 95 101 104 107 109 108 109 112 116 114 112 112 114 113 113 112 112 115 117 116 114 111 108 105 104 99 97 95 94 90 82 76 74 72 70 70 71 73 73 72 70 68 68 70 74 75
68 71 73 78 81 88 94 98 104 108 112 114 113 113 113 114 114 112 108 104 103 104 103 103 101 98 97 95 94 93 92 88 80 74 74 75 76 77 78 81 83 81 79 78 77 75 76 75 77
62 65 67 70 71 74 77 79 83 87 91 93 95 96 93 90 91 92 93 94 95 95 95 97 96 95 94 92 89 85 81 77 75 77 80 83 83 84 87 89 88 88 88 89 87 87 88 87 87

GFSSGP_250_spd_123.txt.gz
Wind_Speed
63 55 56 53 48 46 46 47 46 42 40 39 39 37 35 19 37 30 29 30 28 28 28 28 25 25 26 28 27 27 25 26 25 24 22 21 20 19 21 18 17 17 17 18 20 22 27 29 33
64 62 59 59 53 48 47 50 48 48 40 43 43 43 42 46 37 40 31 30 31 31 30 29 27 26 27 27 29 28 28 28 26 25 22 22 20 17 18 18 18 19 20 20 22 26 31 33 36
68 68 62 61 58 52 51 52 50 50 48 45 46 45 43 46 44 38 38 31 32 33 33 32 28 27 29 26 28 27 27 25 22 19 17 16 16 17 18 19 20 21 22 24 27 31 34 37 40
73 72 67 62 60 58 55 55 56 51 53 52 48 50 47 43 41 37 37 39 37 35 36 35 32 30 31 29 26 26 25 23 21 20 19 17 16 18 19 19 21 24 28 29 31 36 38 41 43
78 77 72 66 66 62 62 59 55 55 58 54 54 49 47 43 37 37 35 37 37 38 38 38 35 32 31 32 27 27 27 26 26 24 22 22 20 21 23 25 27 28 31 33 35 39 41 44 47
82 81 78 70 68 68 66 60 51 60 60 59 56 54 49 45 42 41 41 42 42 42 41 41 39 37 34 33 30 30 29 31 29 27 27 26 25 26 27 28 29 32 33 35 37 42 44 47 50
86 85 79 76 73 73 71 65 60 63 62 61 61 59 54 50 49 45 46 47 47 47 45 43 42 38 36 34 35 34 33 34 33 31 30 30 31 30 30 31 32 35 36 38 41 45 48 51 55
92 90 85 83 79 77 77 70 68 66 63 65 63 61 58 57 56 53 53 54 52 51 48 47 44 41 39 34 38 37 36 36 36 33 32 33 34 34 33 32 35 38 40 42 44 49 51 55 58
99 95 89 85 84 84 83 77 72 69 64 60 65 70 64 62 62 64 62 59 57 55 51 50 47 45 41 38 39 40 40 38 38 36 35 35 35 36 36 36 38 41 44 47 51 54 57 61 63
105 98 93 92 96 94 94 80 78 71 69 66 67 66 66 69 69 67 63 61 59 56 55 51 49 47 42 41 41 43 42 41 39 39 39 39 39 37 39 40 44 46 49 51 55 57 61 64 66
109 106 102 106 99 92 93 82 83 76 71 69 68 64 63 67 67 67 67 65 63 60 57 52 51 49 46 43 44 45 45 44 44 44 44 43 42 41 42 45 49 50 53 56 59 62 65 67 70
116 111 110 113 101 97 96 92 88 81 78 72 65 65 63 65 66 67 66 63 62 61 58 56 52 47 47 46 45 44 46 47 48 47 47 46 45 46 48 51 52 55 58 61 63 66 68 70 72
112 117 119 112 109 101 99 96 92 89 82 75 70 67 67 67 64 63 66 62 62 60 58 57 51 50 48 46 45 45 46 49 50 49 49 49 50 51 54 53 56 59 62 64 68 70 71 72 74
109 114 117 119 113 107 101 100 95 91 87 79 74 74 72 71 69 65 63 63 62 62 61 55 55 54 50 49 49 50 50 51 51 48 50 51 53 56 56 57 60 62 65 69 72 73 75 77 80
113 116 113 117 118 118 110 102 97 95 94 88 81 78 76 73 68 66 66 66 65 66 63 58 58 55 54 54 53 53 54 55 53 50 53 55 55 58 59 62 65 67 70 75 77 79 81 84 86
120 113 113 111 114 117 112 102 100 103 101 94 86 83 78 76 75 70 57 76 71 68 64 64 61 58 59 57 57 58 57 56 55 56 55 57 59 61 64 66 68 72 77 79 82 84 86 87 89
126 118 114 112 110 111 114 107 106 102 101 96 91 87 82 79 80 78 76 73 74 71 69 68 66 66 64 63 62 61 59 59 57 57 59 61 63 66 68 70 74 78 80 83 85 86 88 91 93
115 122 119 112 116 104 112 109 106 103 104 102 99 93 87 82 81 83 79 77 77 77 75 73 71 70 68 67 68 66 66 66 66 66 67 68 69 70 72 76 78 82 84 85 87 91 93 96 98
113 116 118 116 113 102 110 113 107 100 98 106 101 96 92 87 86 88 82 83 80 80 78 77 75 75 73 73 72 71 71 71 72 72 72 73 74 76 79 80 81 83 86 89 91 94 98 101 103
117 114 118 119 109 103 103 109 101 101 105 102 99 98 96 91 88 89 88 88 84 81 80 78 78 78 76 76 74 72 73 74 74 74 77 78 79 81 83 82 83 85 89 91 94 96 100 104 107
118 115 112 113 107 105 99 99 98 92 94 97 95 83 88 93 94 93 91 91 88 84 83 82 80 79 80 80 79 78 80 80 79 81 82 85 83 83 86 88 88 91 92 92 96 99 103 107 106
118 117 116 112 105 102 99 92 91 93 90 93 102 96 80 74 83 93 89 96 92 92 88 85 86 85 85 84 84 84 85 85 85 87 86 88 88 90 92 92 95 94 97 98 98 101 107 107 103
114 115 112 107 105 105 102 93 88 91 85 82 98 98 97 98 98 97 94 92 91 93 93 93 91 89 89 88 87 88 87 87 88 88 88 91 93 95 96 98 101 101 102 102 106 108 109 107 100
114 113 112 107 103 105 98 96 91 97 96 78 80 97 97 98 99 97 97 92 96 97 99 93 92 91 93 95 94 93 93 93 93 94 96 97 98 99 100 103 103 103 105 109 111 114 112 102 92
112 111 109 106 100 100 99 97 94 96 97 94 90 84 81 89 80 78 78 80 93 89 92 93 94 86 92 96 98 97 98 100 99 99 100 101 101 103 104 103 104 107 111 115 116 116 113 98 84
102 109 107 101 101 104 102 98 102 100 90 90 93 97 88 82 78 81 78 83 79 77 77 83 89 95 103 102 102 102 100 103 105 104 104 105 106 105 105 111 112 116 116 119 118 115 98 87 84
92 104 105 107 107 106 103 104 103 91 91 95 87 88 98 101 94 90 86 89 83 89 92 104 100 106 106 103 100 102 104 106 108 106 109 109 110 113 114 116 120 120 121 119 108 97 91 86 80
84 99 105 103 100 95 93 102 106 100 101 106 98 96 99 103 106 109 107 96 103 106 100 98 97 100 103 103 105 107 114 114 115 112 113 113 117 121 123 121 122 125 119 111 101 92 84 76 72
72 92 100 102 100 97 98 95 102 98 103 99 104 108 107 98 93 97 98 99 98 94 95 99 104 105 108 113 116 117 119 115 115 118 120 123 122 121 123 128 123 114 106 102 92 83 78 72 67
58 73 90 103 105 104 103 106 102 97 97 97 104 102 103 104 107 104 102 105 103 105 107 110 112 114 114 114 115 116 118 122 124 126 124 123 124 126 124 118 113 103 98 91 85 86 83 80 78